Location: Cicognara
(44.9500°N, 10.4667°E)
Time: 23:40:34
(UTC+00:00)

Cosmos 1953 Rocket - Pass Details

Date: 20 June 2021
Orbit: 605 x 634 km, 82.5° (Epoch: 23 July)

Event Time Altitude Azimuth Distance (km) Brightness Sun altitude
Exits shadow 23:50:39 58° 159° (SSE) 720 3.5 -21.3°
Maximum altitude 23:51:24 74° 96° (E) 645 3.5 -21.2°
Drops below altitude 10° 23:55:49 10° 12° (NNE) 1,999 7.3 -21.1°
Sets 23:58:04 0° 11° (N) 2,915 8.6 -21.1°
